STARLINK-32337, 61643

Orbit data source: Space-Track

STARLINK-32337, 61643 is a payload satellite owned by SpaceX/Seattle (US) in LEO that was launched on Wed, 23 Oct 2024 UTC via an FALCON 9 launch vehicle from the Air Force Eastern Test Range (AFETR). Payload-class satellites include a variety of spacecraft equipped with specific instruments for various scientific and technological missions. These include communications satellites like Starlink; space stations such as the ISS; scientific satellites like the Hubble; Earth observation satellites from companies like Planet Labs, Umbra, and HawkEye 360; GPS; miniature CubeSats for education and research; and military/defense satellites.

Loading next visibility...
Identifier
61643, 2024-191Y
Orbit
LEO
Country
Flag of USUS
Related business
Manufacturer
SpaceX/Seattle
Mission
Operational Commercial Communications
Bus & Motor
STARLINK V2M, Unknown motor
Mass
730 kg wet, ~700 kg dry
Launch date (UTC)
2024-10-23 (1 year ago)
Launch vehicle
FALCON 9
Launch site
Air Force Eastern Test Range (AFETR)
Object type
Payload
Rocket body
Debris
Shape & HBR
Box + 2 Pan, 17.7 m
Radar Cross Section
33.884 m², Large (>1 m²)

Expand to show TLE details & history
Last TLE update: 18 hours ago

TLE from 18 hours ago
0 STARLINK-32337
1 61643U 24191Y   25348.85981289 -.00003344  00000-0 -11205-3 0  9997
2 61643  43.0027 273.5034 0001451 274.8980  85.1706 15.27576672 65322
Epoch: 2025-12-14T20:38Z
TLE epoch observation values (Epoch: 2025-12-14T20:38:07.833Z)
Latitude
-0.00003°
Longitude
-119.79595°
Altitude
482.751 km
Speed
7.626 km/s
True Right ascension
18h 14m 00s
True Declination
0° 00' 00"
Sunlit
Object was in daylight at epoch
Visualization orbit readout
Latitude
Unknown
Longitude
Unknown
Altitude
Unknown
Speed
Unknown
Apparent Right ascension
Unknown
Apparent Declination
Unknown
Sunlit
N/A
Visualization observer readout
Local Sidereal Time
13:22:52
Azimuth
Unknown
Elevation
Unknown
Doppler factor
Unknown
Orbital elements
Apogee altitude
486 km
Perigee altitude
484.008 km
Semi-major axis
6,863.141 km
Eccentricity
0.00015
Inclination
43.0027°
RAAN
273.5034°
Arg. of periapsis
274.898°
True anomaly
85.18717°
Mean anomaly
85.1706°
Eccentric anomaly
85.17888°
Mean motion
3.81732 °/min
Orbital period
94.31 mins
BSTAR
-0.00011205
Loading maneuver chart data...
Computing Atmospheric mass density...
Loading historical data...
Loading historical data...
Loading historical data...
Loading historical data...
Loading historical data...
Loading historical data...
Loading historical data...

Documentation

Showing up to 5 results
|